Versailles, OH

12:52 PM EST on February 14, 2016 (GMT -0500)
Darke County

Weather History for KVES - July, 2014

Change the Weather History Date:

Friday, July 4, 2014

  Actual Average (KDAY) Record (KDAY)
Temperature  
Mean Temperature 62 °F 74 °F  
Max Temperature 77 °F 84 °F 104 °F (1897)
Min Temperature 46 °F 64 °F 49 °F (1968)
Degree Days  
Heating Degree Days 4 0  
Month to date heating degree days 0  
Since 1 June heating degree days 22  
Since 1 July heating degree days 0  
Cooling Degree Days 0 9  
Month to date cooling degree days 36  
Year to date cooling degree days 296  
Since 1 June cooling degree days 226  
Growing Degree Days 12 (Base 50)    
Moisture  
Dew Point 48 °F    
Average Humidity 63    
Maximum Humidity 100    
Minimum Humidity 29    
Precipitation  
Precipitation 0.00 in 0.14 in 2.05 in (1906)
Month to date precipitation 0.55  
Year to date precipitation 21.76  
Snow  
Snow 0.00 in 0.00 in 0.00 in ()
Month to date snowfall 0.0  
Since 1 June snowfall 0.0  
Since 1 July snowfall 0.0  
Snow Depth -    
Sea Level Pressure  
Sea Level Pressure 30.26 in    
Wind  
Wind Speed 4 mph (North)    
Max Wind Speed 13 mph    
Max Gust Speed 21 mph    
Visibility 10 miles    
Events      
T = Trace of Precipitation, MM = Missing Value Source: NWS Daily Summary

Daily Weather History Graph

Daily Weather History Graph

Search for Another Location

Airport or City:

Trip Planner

Search our weather history database for the weather conditions in past years. The results will help you decide how hot, cold, wet, or windy it might be!

Date:

Astronomy

Jul. 04, 2014 Rise Set
Actual Time 6:13 AM EDT 9:10 PM EDT
Civil Twilight 5:41 AM EDT 9:43 PM EDT
Nautical Twilight 4:59 AM EDT 10:24 PM EDT
Astronomical Twilight 4:11 AM EDT 11:12 PM EDT
Moon 1:09 PM EDT (7/4) 12:32 AM EDT (7/4)
Length of Visible Light 16h 02m
Length of Day
14h 57m
Waxing Crescent, 42% of the Moon is Illuminated
Jul 4
Waxing Crescent
Jul 5
First Quarter
Jul 12
Full
Jul 18
Last Quarter
Jul 26
New

Hourly Weather History & Observations

Time (EDT) Temp. Dew Point Humidity Pressure Visibility Wind Dir Wind Speed Gust Speed Precip Events Conditions
12:15 AM 53.6 °F 46.4 °F 77% 30.18 in 10.0 mi NNW 4.6 mph - N/A   Clear
12:35 AM 53.6 °F 46.4 °F 77% 30.18 in 10.0 mi NNW 4.6 mph - N/A   Clear
12:55 AM 51.8 °F 48.2 °F 88% 30.19 in 10.0 mi North 4.6 mph - N/A   Clear
1:15 AM 51.8 °F 46.4 °F 82% 30.19 in 10.0 mi Calm Calm - N/A   Clear
1:35 AM 53.6 °F 46.4 °F 77% 30.19 in 10.0 mi Calm Calm - N/A   Clear
1:55 AM 51.8 °F 46.4 °F 82% 30.19 in 10.0 mi Calm Calm - N/A   Clear
2:15 AM 51.8 °F 46.4 °F 82% 30.19 in 10.0 mi Calm Calm - N/A   Clear
2:35 AM 50.0 °F 48.2 °F 94% 30.19 in 10.0 mi Calm Calm - N/A   Clear
2:55 AM 50.0 °F 48.2 °F 94% 30.19 in 10.0 mi Calm Calm - N/A   Clear
3:15 AM 50.0 °F 48.2 °F 94% 30.19 in 10.0 mi Calm Calm - N/A   Clear
3:35 AM 50.0 °F 48.2 °F 94% 30.19 in 10.0 mi Calm Calm - N/A   Clear
3:55 AM 50.0 °F 48.2 °F 94% 30.19 in 10.0 mi Calm Calm - N/A   Clear
4:15 AM 50.0 °F 46.4 °F 87% 30.20 in 10.0 mi West 3.5 mph - N/A   Clear
4:35 AM 48.2 °F 46.4 °F 93% 30.20 in 10.0 mi West 3.5 mph - N/A   Clear
4:55 AM 48.2 °F 46.4 °F 93% 30.21 in 10.0 mi West 3.5 mph - N/A   Clear
5:15 AM 48.2 °F 46.4 °F 93% 30.22 in 10.0 mi Calm Calm - N/A   Clear
5:35 AM 50.0 °F 46.4 °F 87% 30.22 in 10.0 mi Calm Calm - N/A   Clear
5:55 AM 48.2 °F 46.4 °F 93% 30.23 in 10.0 mi Calm Calm - N/A   Clear
6:15 AM 48.2 °F 46.4 °F 93% 30.24 in 10.0 mi Calm Calm - N/A   Clear
6:35 AM 46.4 °F 46.4 °F 100% 30.25 in 10.0 mi Calm Calm - N/A   Clear
6:55 AM 48.2 °F 48.2 °F 100% 30.25 in 10.0 mi Calm Calm - N/A   Clear
7:15 AM 50.0 °F 50.0 °F 100% 30.26 in 10.0 mi Calm Calm - N/A   Clear
7:35 AM 51.8 °F 51.8 °F 100% 30.27 in 10.0 mi Calm Calm - N/A   Clear
7:55 AM 55.4 °F 53.6 °F 94% 30.27 in 10.0 mi NNW 3.5 mph - N/A   Clear
8:15 AM 57.2 °F 53.6 °F 88% 30.27 in 10.0 mi Calm Calm - N/A   Clear
8:35 AM 59.0 °F 51.8 °F 77% 30.28 in 10.0 mi North 3.5 mph - N/A   Clear
8:55 AM 60.8 °F 51.8 °F 72% 30.28 in 10.0 mi North 4.6 mph - N/A   Clear
9:15 AM 62.6 °F 50.0 °F 63% 30.28 in 10.0 mi North 5.8 mph - N/A   Clear
9:35 AM 64.4 °F 50.0 °F 59% 30.29 in 10.0 mi North 6.9 mph - N/A   Clear
9:55 AM 64.4 °F 50.0 °F 59% 30.29 in 10.0 mi North 6.9 mph - N/A   Clear
10:15 AM 66.2 °F 50.0 °F 56% 30.29 in 10.0 mi NNE 5.8 mph - N/A   Clear
10:35 AM 68.0 °F 50.0 °F 52% 30.29 in 10.0 mi North 6.9 mph - N/A   Clear
10:55 AM 69.8 °F 50.0 °F 49% 30.29 in 10.0 mi North 6.9 mph - N/A   Clear
11:15 AM 69.8 °F 50.0 °F 49% 30.30 in 10.0 mi NNE 10.4 mph 16.1 mph N/A   Clear
11:35 AM 69.8 °F 50.0 °F 49% 30.30 in 10.0 mi NNE 6.9 mph 20.7 mph N/A   Clear
12:15 PM 71.6 °F 50.0 °F 46% 30.31 in 10.0 mi NNE 8.1 mph - N/A   Clear
12:35 PM 73.4 °F 48.2 °F 41% 30.30 in 10.0 mi NNE 9.2 mph - N/A   Clear
12:55 PM 73.4 °F 46.4 °F 38% 30.30 in 10.0 mi NNE 12.7 mph 19.6 mph N/A   Clear
1:15 PM 73.4 °F 46.4 °F 38% 30.30 in 10.0 mi NNE 11.5 mph 18.4 mph N/A   Scattered Clouds
1:35 PM 73.4 °F 46.4 °F 38% 30.29 in 10.0 mi NNE 10.4 mph 18.4 mph N/A   Scattered Clouds
1:55 PM 73.4 °F 46.4 °F 38% 30.29 in 10.0 mi NE 12.7 mph 16.1 mph N/A   Scattered Clouds
2:15 PM 75.2 °F 46.4 °F 36% 30.28 in 10.0 mi North 8.1 mph - N/A   Scattered Clouds
2:35 PM 77.0 °F 46.4 °F 34% 30.28 in 10.0 mi NE 10.4 mph - N/A   Clear
2:55 PM 77.0 °F 44.6 °F 32% 30.28 in 10.0 mi NNE 8.1 mph - N/A   Clear
3:15 PM 75.2 °F 46.4 °F 36% 30.27 in 10.0 mi NNE 9.2 mph - N/A   Clear
3:35 PM 77.0 °F 44.6 °F 32% 30.27 in 10.0 mi NE 6.9 mph - N/A   Clear
3:55 PM 77.0 °F 44.6 °F 32% 30.27 in 10.0 mi North 10.4 mph 18.4 mph N/A   Clear
4:15 PM 77.0 °F 44.6 °F 32% 30.27 in 10.0 mi North 10.4 mph - N/A   Clear
4:35 PM 77.0 °F 44.6 °F 32% 30.27 in 10.0 mi NNE 8.1 mph - N/A   Clear
4:55 PM 77.0 °F 42.8 °F 29% 30.27 in 10.0 mi North 11.5 mph - N/A   Clear
5:15 PM 77.0 °F 44.6 °F 32% 30.27 in 10.0 mi NNE 4.6 mph - N/A   Clear
5:35 PM 77.0 °F 42.8 °F 29% 30.27 in 10.0 mi NNE 5.8 mph - N/A   Clear
5:55 PM 77.0 °F 44.6 °F 32% 30.27 in 10.0 mi ENE 3.5 mph - N/A   Clear
6:15 PM 77.0 °F 44.6 °F 32% 30.27 in 10.0 mi North 6.9 mph - N/A   Clear
6:35 PM 77.0 °F 44.6 °F 32% 30.26 in 10.0 mi NNE 5.8 mph - N/A   Clear
6:55 PM 77.0 °F 44.6 °F 32% 30.27 in 10.0 mi NNW 4.6 mph - N/A   Clear
7:15 PM 75.2 °F 44.6 °F 34% 30.27 in 10.0 mi NE 5.8 mph - N/A   Clear
7:35 PM 73.4 °F 42.8 °F 33% 30.27 in 10.0 mi North 6.9 mph - N/A   Clear
7:55 PM 73.4 °F 44.6 °F 36% 30.27 in 10.0 mi North 4.6 mph - N/A   Clear
8:15 PM 71.6 °F 46.4 °F 41% 30.28 in 10.0 mi North 4.6 mph - N/A   Clear
8:35 PM 69.8 °F 50.0 °F 49% 30.28 in 10.0 mi NNE 3.5 mph - N/A   Clear
8:55 PM 68.0 °F 53.6 °F 60% 30.28 in 10.0 mi Calm Calm - N/A   Clear
9:15 PM 66.2 °F 50.0 °F 56% 30.28 in 10.0 mi Calm Calm - N/A   Clear
9:35 PM 62.6 °F 51.8 °F 68% 30.28 in 10.0 mi Calm Calm - N/A   Clear
9:55 PM 60.8 °F 53.6 °F 77% 30.29 in 10.0 mi Calm Calm - N/A   Clear
10:15 PM 60.8 °F 51.8 °F 72% 30.30 in 10.0 mi Calm Calm - N/A   Clear
10:35 PM 59.0 °F 53.6 °F 82% 30.31 in 10.0 mi Calm Calm - N/A   Clear
10:55 PM 59.0 °F 53.6 °F 82% 30.31 in 10.0 mi Calm Calm - N/A   Clear
11:15 PM 59.0 °F 53.6 °F 82% 30.31 in 10.0 mi Calm Calm - N/A   Clear
11:35 PM 59.0 °F 53.6 °F 82% 30.31 in 10.0 mi Calm Calm - N/A   Clear